GW3876 Weather Reports


time (UTC)temp
C
wind
direction
speed
KPH
gust
KPH
rain 1hr
cm
rain 24hr
cm
rain mn
cm
humidity
%
barometer
mb
20260502191504 10 146 3.2 11.3 0.00 0.08 0.08 84 1011.6
20260502184504 10 152 3.2 8.0 0.00 0.08 0.08 84 1011.8
20260502183008 10 102 4.8 11.3 0.00 0.08 0.08 84 1011.9
20260502181505 10 131 4.8 9.7 0.00 0.08 0.08 84 1011.9
20260502163026 10 129 0.0 4.8 0.00 0.08 0.08 87 1012.3
20260502161520 10 105 0.0 3.2 0.03 0.08 0.08 88 1012.2
20260502151507 10 206 4.8 11.3 0.03 0.05 0.05 86 1012.9
20260502121504 10 297 0.0 3.2 0.00 0.00 0.00 82 1013.5
20260502114516 9 13 0.0 1.6 0.00 0.00 0.00 85 1013.0
20260502113008 8 13 0.0 1.6 0.00 0.00 0.00 86 1012.9
20260502111507 8 12 0.0 0.0 0.00 0.00 0.00 87 1012.8
20260502110006 7 12 0.0 1.6 0.00 0.00 0.00 87 1012.6
20260502104513 7 12 0.0 0.0 0.00 0.00 0.00 87 1012.5
20260502103004 7 12 0.0 1.6 0.00 0.00 0.00 86 1012.5
20260502091511 8 166 0.0 1.6 0.00 0.00 0.00 82 1012.3
20260502071512 8 129 0.0 1.6 0.00 0.00 0.00 79 1012.3
20260502070015 8 223 0.0 1.6 0.00 0.00 0.00 77 1012.4
20260502064507 8 168 0.0 0.0 0.00 0.00 0.00 76 1012.5
20260502063005 8 227 0.0 1.6 0.00 0.00 0.00 75 1012.3
20260502061501 8 254 0.0 1.6 0.00 0.00 0.00 73 1012.5
20260502060002 8 207 0.0 3.2 0.00 0.00 0.00 72 1012.8
20260502054504 9 154 0.0 1.6 0.00 0.00 0.00 71 1012.7
20260502053017 9 123 0.0 3.2 0.00 0.00 0.00 70 1012.9
20260502051508 10 128 0.0 6.4 0.00 0.00 0.00 69 1013.1
20260502050009 10 218 0.0 6.4 0.00 0.00 0.00 68 1013.2
20260502044508 10 197 1.6 9.7 0.00 0.00 0.00 68 1013.2
20260502043003 10 281 3.2 6.4 0.00 0.00 0.00 68 1013.2
20260502040004 10 209 1.6 6.4 0.00 0.00 0.00 69 1013.1
20260502034517 10 136 3.2 9.7 0.00 0.00 0.00 69 1013.2
20260502031512 10 222 1.6 8.0 0.00 0.00 0.00 69 1013.3
20260502030010 10 184 0.0 4.8 0.00 0.00 0.00 69 1013.3
20260502024514 10 302 0.0 1.6 0.00 0.00 0.00 69 1013.3
20260502023008 10 125 0.0 3.2 0.00 0.00 0.00 69 1013.2
20260502021501 10 240 0.0 4.8 0.00 0.00 0.00 69 1013.1
20260502014517 10 256 4.8 8.0 0.00 0.00 0.00 67 1013.1
20260502013016 10 247 3.2 9.7 0.00 0.00 0.00 66 1013.1
20260502010020 11 209 4.8 9.7 0.00 0.00 0.00 64 1012.8
20260502004513 11 84 0.0 14.5 0.00 0.00 0.00 62 1012.7
20260502001523 12 232 1.6 17.7 0.00 0.00 0.00 59 1012.1
20260502000022 12 226 9.7 16.1 0.00 0.00 0.00 55 1011.7
20260501233003 14 248 3.2 8.0 0.00 0.00 0.00 41 1011.1
20260501231502 15 230 3.2 16.1 0.00 0.00 0.00 38 1010.8
20260501230002 15 211 3.2 14.5 0.00 0.00 0.00 37 1010.6
20260501224509 15 234 3.2 16.1 0.00 0.00 0.00 37 1010.6
20260501223006 15 261 9.7 17.7 0.00 0.00 0.00 36 1010.4
20260501221510 16 214 4.8 17.7 0.00 0.00 0.00 37 1010.5
20260501220011 16 249 1.6 16.1 0.00 0.00 0.00 37 1010.5
20260501214503 16 203 11.3 20.9 0.00 0.00 0.00 36 1010.5
20260501213003 16 193 4.8 20.9 0.00 0.00 0.00 37 1010.4
20260501211504 16 201 4.8 19.3 0.00 0.00 0.00 38 1010.2
20260501210011 15 211 9.7 25.7 0.00 0.00 0.00 38 1010.3
20260501204509 15 196 6.4 24.1 0.00 0.00 0.00 41 1010.1
20260501203005 15 227 16.1 27.4 0.00 0.00 0.00 40 1010.1
20260501200005 16 103 6.4 22.5 0.00 0.00 0.00 42 1010.0
20260501194510 16 213 12.9 25.7 0.00 0.00 0.00 42 1010.1